SCP
0 -0 -0 -0 0 0 0 0 0 0 -0 -0 -0 -0 -0 -0 -0 -0 -0 -0 -0 -0 -0 -0 -0 -0 -0 -0 0 0 0 -0 -0 0 0 0 0 0 0 0 0 0 0
0 -0 -0 -0 0 0 0 0 0 -0 -0 -0 -0 -0 -0 -0 -0 -0 -0 -0 -0 -0 -0 -0 -0 -0 -0 -0 -0 -0 -0 0 0 0 0 0 0 0 0 0 0 0 0
0 -0 -0 -0 0 0 0 0 -0 -0 -0 -0 -0 -0 -0 -0 -0 -0 -0 -0 0 0 0 0 0 0 0 0 0 -0 -0 0 0 0 0 0 0 0 0 0 0 0 0
-0 -0 -0 -0 0 0 0 -0 -0 -0 -0 -0 -0 -0 -0 -0 -0 -0 -0 0 0 0 0 0 0 0 0 0 0 0 0 0 0 0 0 0 0 0 0 0 0 0 0
0 -0 -0 -0 0 0 -0 -0 -0 -0 -0 -0 -0 -0 -0 -0 0 0 0 0 0 0 0 0 0 0 0 0 0 0 0 0 0 0 0 0 0 0 0 0 0 0 0
-0 -0 -0 -0 0 0 -0 -0 -0 -0 -0 -0 -0 -0 0 0 0 0 0 0 0 0 0 0 0 0 0 0 0 0 0 0 0 0 0 0 0 0 0 0 0 0 0
-0 -0 -0 0 -0 -0 -0 -0 -0 -0 -0 -0 0 -0 -0 -0 -0 0 0 0 0 0 0 0 0 0 0 0 0 0 0 0 0 0 0 0 0 0 0 0 0 0 0
0 -0 0 -0 -0 0 -0 -0 -0 -0 -0 -0 -0 -0 -0 -0 -0 0 0 0 0 0 0 0 0 0 0 0 0 0 0 0 0 0 0 0 0 0 0 0 0 0 0
0 0 0 0 0 0 -0 -0 0 0 -0 -0 -0 -0 -0 -0 0 0 0 0 0 0 0 0 0 0 0 0 0 0 -0 0 0 0 0 0 0 0 0 0 0 0 0
0 -0 -0 0 0 0 -0 0 -0 -0 -0 -0 -0 -0 -0 0 0 0 0 0 0 0 0 0 0 0 0 0 0 0 0 -0 0 0 0 0 0 0 0 0 0 0 0
-0 -0 0 0 0 -0 -0 -0 -0 -0 -0 -0 -0 -0 0 0 0 0 0 0 0 0 0 0 0 0 0 0 0 0 0 0 0 0 0 0 0 0 0 0 0 0 0
0 0 -0 -0 -0 -0 -0 -0 -0 -0 -0 -0 -0 0 0 0 0 0 0 0 0 0 0 0 0 0 0 0 0 0 0 0 0 0 0 0 0 0 0 0 0 0 0
0 0 0 -0 -0 -0 -0 -0 -0 -0 -0 -0 -0 0 0 0 0 0 0 0 0 0 0 0 0 0 0 0 0 0 0 0 0 0 0 0 0 0 0 0 0 0 0
0 0 -0 -0 -0 -0 -0 -0 -0 -0 -0 -0 0 0 0 0 0 0 0 0 0 0 0 0 0 0 0 0 0 0 0 0 0 0 0 0 0 0 0 0 0 0 0
0 0 -0 -0 -0 -0 -0 -0 -0 -0 0 0 0 0 0 0 0 0 0 0 0 0 0 0 0 0 0 0 0 0 0 0 0 0 0 0 0 0 0 0 0 0 0
-0 -0 0 0 0 0 0 0 -0 -0 0 0 0 0 0 0 0 0 0 0 0 0 0 0 0 0 0 0 0 0 0 0 0 0 0 0 0 0 0 0 0 0 0
-0 0 0 0 0 0 0 0 0 0 0 0 0 0 0 0 0 0 0 0 0 0 0 0 0 0 0 0 0 0 0 0 0 0 0 0 0 0 0 0 0 0 0
0 0 0 0 0 0 0 0 -0 -0 -0 0 0 0 0 0 0 0 0 0 0 0 0 0 0 0 0 0 0 0 0 0 0 0 0 0 0 0 0 0 0 0 0
0 0 0 0 0 0 0 0 -0 0 0 0 0 0 0 0 0 0 0 0 0 0 0 0 0 0 0 0 0 0 0 0 0 0 0 0 0 0 0 0 0 0 0
0 0 0 0 0 0 0 0 0 0 0 0 0 0 0 0 0 0 0 0 0 0 0 0 0 0 0 0 0 0 0 0 0 0 0 0 0 0 0 0 0 0 0
0 0 0 0 0 0 0 -0 0 0 0 0 0 0 0 0 0 0 0 0 0 0 0 0 0 0 0 0 0 0 0 0 0 0 0 0 0 0 0 0 0 0 0
0 0 0 0 0 -0 -0 -0 -0 0 0 0 0 0 0 0 0 0 0 0 0 0 0 0 0 0 0 0 0 0 0 0 0 0 0 0 0 0 0 0 0 0 0
0 -0 -0 -0 -0 -0 -0 0 0 0 0 0 0 0 0 0 0 0 0 0 0 0 0 0 0 0 0 0 0 0 0 0 0 0 0 0 0 0 0 0 0 0 0
-0 -0 -0 -0 -0 0 0 0 0 0 0 0 0 0 0 0 0 0 0 0 0 0 0 0 0 0 0 0 0 0 0 0 0 0 0 0 0 0 0 0 0 0 0
0 0 0 0 0 0 0 0 0 0 0 0 0 0 0 0 0 0 0 0 0 0 0 0 0 0 0 0 0 0 0 0 0 0 0 0 0 0 0 0 0 0 0
0 0 0 0 0 0 0 0 0 0 0 0 0 0 0 0 0 0 0 0 0 0 0 0 0 0 0 0 0 0 0 0 0 0 0 0 0 0 0 0 0 0 0
Wind_Speed_500mb
46 44 42 38 34 31 30 30 28 27 28 26 25 24 21 19 16 13 11 9 6 4 4 5 6 7 7 7 8 9 11 12 13 12 12 10 11 10 13 12 12 12 11
47 44 43 39 37 34 31 27 25 25 26 25 21 19 17 16 14 12 9 7 8 10 10 9 7 7 8 9 9 10 11 12 13 13 11 8 5 6 12 14 12 9 8
47 44 42 37 34 33 30 28 28 26 23 20 19 17 16 16 16 15 15 14 15 15 15 14 12 13 14 13 12 13 12 12 11 10 9 7 4 7 10 11 16 15 11
49 46 40 36 32 30 28 26 24 22 21 20 20 18 18 19 20 19 20 19 20 21 20 19 19 19 19 18 18 17 16 16 14 10 7 5 7 9 6 6 13 13 11
45 43 39 35 30 26 24 23 21 20 20 19 19 20 20 21 23 21 21 22 21 21 19 19 19 19 19 20 20 20 19 19 17 14 10 7 5 9 11 12 11 13 12
44 42 37 31 27 26 23 21 20 20 19 20 20 20 21 23 22 22 21 20 20 20 20 19 18 18 18 19 21 23 24 25 22 17 13 9 7 7 11 15 13 10 10
44 38 34 31 27 23 21 20 21 22 23 24 23 22 22 23 22 22 21 19 19 19 21 22 24 23 22 23 23 24 24 24 23 20 15 14 13 16 17 16 17 14 12
38 36 35 30 24 20 20 22 25 26 26 26 24 22 24 23 23 25 25 23 24 24 25 26 27 28 28 28 28 27 28 25 22 20 19 17 18 19 22 24 23 20 18
37 37 32 27 24 23 23 25 26 27 27 26 25 25 24 25 26 24 25 24 22 21 21 23 24 24 25 26 27 30 31 31 28 25 22 20 22 25 28 27 28 26 25
39 32 28 26 25 25 27 26 27 27 26 25 26 23 24 21 21 21 19 17 17 15 16 15 15 16 18 21 22 23 24 25 26 28 27 25 23 23 25 29 31 31 29
35 29 27 25 24 26 26 27 27 25 25 25 23 20 18 15 15 15 13 12 11 11 7 6 7 9 13 18 23 25 25 27 28 28 28 28 26 25 24 25 26 29 30
36 30 26 27 26 26 26 25 25 25 24 20 16 15 12 9 7 6 5 5 4 2 3 8 10 12 16 20 24 26 27 30 33 36 35 34 33 32 30 30 28 27 30
32 31 29 27 28 25 24 23 21 21 19 15 11 8 6 3 2 0 3 4 5 4 8 12 15 17 21 25 26 27 32 39 44 44 43 42 40 39 38 37 37 38 35
34 30 29 28 28 23 22 17 14 13 12 10 6 4 4 4 7 7 8 9 10 11 14 17 21 24 27 28 30 36 44 47 49 52 54 52 48 46 45 44 44 44 44
32 27 25 23 25 23 19 15 13 11 12 13 13 13 10 9 10 12 11 13 15 18 21 24 26 28 31 34 39 46 51 53 55 59 61 57 54 49 49 49 49 50 52
31 29 26 28 24 20 16 12 15 21 23 27 27 23 19 18 16 17 16 19 22 24 27 28 31 35 39 43 47 51 55 59 62 61 62 60 56 54 51 51 56 57 56
33 34 34 33 27 24 20 10 7 19 23 27 34 34 28 22 19 21 21 23 25 25 27 31 35 40 46 51 55 59 62 63 65 65 62 57 52 50 50 52 52 53 58
38 41 39 35 28 24 21 19 32 15 29 31 33 25 21 16 15 16 18 20 22 27 34 41 46 52 58 62 63 63 61 60 59 55 54 50 48 46 46 46 49 53 55
33 38 43 43 40 28 18 19 33 21 23 15 10 12 13 14 13 15 18 25 33 39 45 50 53 56 57 56 54 52 50 49 49 47 45 44 46 48 49 52 51 51 52
38 45 43 42 42 35 12 14 11 3 3 6 9 13 16 19 20 24 30 34 40 48 52 54 54 52 50 50 50 47 47 43 33 30 38 48 47 48 54 55 56 58 56
21 20 26 32 22 6 17 22 20 11 8 1 10 16 19 20 21 26 30 39 48 52 52 50 50 51 48 54 49 35 32 20 21 41 33 39 50 48 51 53 54 54 57
14 16 17 23 26 30 24 20 12 5 5 15 21 23 27 27 25 29 39 46 45 40 42 47 49 49 45 46 38 32 22 26 16 19 43 40 44 41 46 46 48 50 51
46 43 40 39 38 32 23 12 5 0 7 14 19 25 24 20 25 36 41 41 39 43 48 49 48 45 39 36 37 21 21 19 39 25 34 31 41 48 49 50 48 46 47
45 38 34 29 25 20 12 7 7 9 14 18 20 21 16 22 33 35 36 34 39 42 46 47 45 40 38 24 24 21 24 27 28 31 27 36 40 39 40 49 50 42 38
37 32 25 21 18 11 9 8 13 15 16 16 15 13 21 29 33 34 37 38 42 45 44 47 44 41 35 25 22 21 24 27 29 29 44 40 40 39 37 32 40 44 34
30 22 21 17 19 14 8 9 12 13 12 12 14 22 27 32 37 39 40 42 44 48 49 47 43 41 33 29 28 29 27 27 29 29 31 41 47 44 39 36 29 33 33
Wind_Direction_500mb
160 155 152 155 152 149 147 146 142 140 138 138 131 123 122 121 120 118 116 112 112 91 58 32 21 9 1 358 333 335 333 328 328 338 359 14 24 27 25 27 31 21 19
155 154 156 158 156 155 157 155 151 147 144 136 128 129 129 130 131 127 116 105 82 79 76 64 49 28 14 6 355 345 331 332 334 340 1 22 46 38 25 31 27 5 349
160 159 156 157 159 163 160 160 154 152 144 140 141 139 136 125 113 104 101 97 90 85 80 73 63 53 47 38 29 21 5 359 344 347 358 8 37 42 31 48 26 14 352
163 163 157 160 164 160 162 155 153 154 147 144 138 126 115 108 106 101 95 90 85 80 75 70 62 55 50 41 35 33 19 15 11 4 11 3 340 5 35 1 355 351 348
161 159 155 160 161 161 163 158 155 147 141 130 117 111 110 101 96 95 92 84 80 75 68 58 50 42 39 36 31 27 23 14 13 9 11 360 351 344 339 339 337 342 324
160 157 158 159 162 164 160 157 151 142 130 121 119 115 103 98 97 95 90 83 74 64 57 51 45 37 32 27 23 15 15 10 11 9 6 353 341 327 329 331 333 330 319
162 158 157 161 161 159 162 155 146 136 132 130 123 115 111 106 106 101 95 91 83 75 69 66 63 59 49 37 30 19 16 11 11 12 3 359 341 325 321 314 320 324 319
160 159 158 157 157 163 162 152 145 139 135 131 126 123 116 116 113 105 102 96 92 87 83 74 69 63 56 47 38 30 27 23 12 7 1 351 336 326 321 317 310 310 317
161 160 154 155 161 160 157 150 143 141 137 133 128 125 122 120 113 107 104 101 97 99 86 80 75 68 60 52 42 33 27 22 18 12 359 340 323 315 314 309 310 311 307
160 155 157 162 162 158 156 149 145 142 136 131 130 123 124 118 113 110 109 111 111 107 96 87 74 61 51 38 29 20 16 14 10 7 1 353 345 337 316 306 303 301 298
157 160 165 164 159 157 152 146 144 140 137 137 133 131 128 126 121 121 127 121 126 119 106 66 24 13 11 6 4 3 360 355 350 347 344 337 332 330 326 321 312 303 299
163 164 162 164 156 150 148 146 146 147 145 141 140 144 132 128 131 125 139 135 145 131 4 342 335 339 338 340 344 346 347 342 337 333 327 319 313 310 308 308 304 303 301
165 167 159 155 148 150 148 147 145 148 148 153 153 149 153 149 170 8 299 279 259 310 314 321 317 319 320 324 330 334 333 330 329 327 323 312 301 295 292 291 294 296 293
175 169 159 156 152 154 151 150 147 156 176 189 191 187 206 235 243 234 248 263 274 293 304 308 305 305 309 313 316 321 324 326 325 324 324 319 306 293 287 284 284 283 285
178 172 170 168 168 170 174 179 203 221 235 243 247 248 255 254 246 247 260 274 284 292 298 297 294 297 301 305 308 312 315 317 318 319 319 316 308 297 287 281 278 277 278
185 184 185 189 188 190 196 216 240 247 252 257 259 261 256 256 268 269 278 282 283 289 294 297 302 304 304 304 305 308 311 313 313 314 314 310 303 297 292 285 277 275 273
209 202 203 203 198 202 214 226 316 277 274 268 265 265 267 265 274 280 283 286 284 292 301 305 307 307 307 306 308 310 310 309 310 312 311 308 303 297 291 285 283 281 275
224 219 215 208 200 193 182 141 351 273 277 278 276 284 297 301 290 287 287 285 296 309 313 314 314 315 315 314 312 310 309 309 311 310 307 304 302 299 295 288 283 280 280
242 242 231 216 201 176 169 211 300 289 289 303 329 338 338 326 313 303 310 320 323 325 324 323 321 319 317 314 312 311 311 309 307 302 300 301 303 303 300 294 289 284 280
243 234 231 223 210 207 273 258 276 164 65 23 353 339 325 314 314 321 326 326 327 327 325 325 325 325 323 321 319 315 315 311 293 280 292 294 296 303 304 303 298 292 284
212 229 248 232 235 181 101 143 149 155 150 31 349 338 329 322 320 324 329 328 325 326 327 330 332 330 327 323 325 316 313 294 257 285 287 304 306 309 306 303 300 298 294
125 159 168 136 120 99 106 118 122 121 354 337 338 327 327 320 318 323 325 327 328 333 337 335 333 331 327 324 323 323 316 299 294 274 299 302 310 315 314 307 304 301 297
115 118 119 113 103 106 115 105 83 345 316 315 306 305 303 306 319 324 326 328 330 332 334 334 332 328 324 322 319 321 311 297 309 306 306 304 307 312 310 305 305 304 300
120 118 119 118 122 126 141 188 258 287 299 301 302 299 308 324 326 326 329 329 328 330 335 335 328 320 316 309 313 307 298 289 296 300 294 298 309 309 308 304 310 314 296
130 130 136 144 155 173 207 248 280 301 311 314 311 319 328 325 326 327 329 329 329 331 327 330 324 319 312 306 302 303 302 299 296 292 302 309 301 305 306 309 311 315 309
152 152 163 162 185 204 245 272 294 316 332 343 330 320 320 319 322 325 327 329 329 323 318 313 308 308 305 302 308 311 306 302 301 299 303 310 304 313 303 308 313 315 307
Wind_Speed_850mb
46 44 42 38 34 31 30 30 28 27 28 26 25 24 21 19 16 13 11 9 6 4 4 5 6 7 7 7 8 9 11 12 13 12 12 10 11 10 13 12 12 12 11
47 44 43 39 37 34 31 27 25 25 26 25 21 19 17 16 14 12 9 7 8 10 10 9 7 7 8 9 9 10 11 12 13 13 11 8 5 6 12 14 12 9 8
47 44 42 37 34 33 30 28 28 26 23 20 19 17 16 16 16 15 15 14 15 15 15 14 12 13 14 13 12 13 12 12 11 10 9 7 4 7 10 11 16 15 11
49 46 40 36 32 30 28 26 24 22 21 20 20 18 18 19 20 19 20 19 20 21 20 19 19 19 19 18 18 17 16 16 14 10 7 5 7 9 6 6 13 13 11
45 43 39 35 30 26 24 23 21 20 20 19 19 20 20 21 23 21 21 22 21 21 19 19 19 19 19 20 20 20 19 19 17 14 10 7 5 9 11 12 11 13 12
44 42 37 31 27 26 23 21 20 20 19 20 20 20 21 23 22 22 21 20 20 20 20 19 18 18 18 19 21 23 24 25 22 17 13 9 7 7 11 15 13 10 10
44 38 34 31 27 23 21 20 21 22 23 24 23 22 22 23 22 22 21 19 19 19 21 22 24 23 22 23 23 24 24 24 23 20 15 14 13 16 17 16 17 14 12
38 36 35 30 24 20 20 22 25 26 26 26 24 22 24 23 23 25 25 23 24 24 25 26 27 28 28 28 28 27 28 25 22 20 19 17 18 19 22 24 23 20 18
37 37 32 27 24 23 23 25 26 27 27 26 25 25 24 25 26 24 25 24 22 21 21 23 24 24 25 26 27 30 31 31 28 25 22 20 22 25 28 27 28 26 25
39 32 28 26 25 25 27 26 27 27 26 25 26 23 24 21 21 21 19 17 17 15 16 15 15 16 18 21 22 23 24 25 26 28 27 25 23 23 25 29 31 31 29
35 29 27 25 24 26 26 27 27 25 25 25 23 20 18 15 15 15 13 12 11 11 7 6 7 9 13 18 23 25 25 27 28 28 28 28 26 25 24 25 26 29 30
36 30 26 27 26 26 26 25 25 25 24 20 16 15 12 9 7 6 5 5 4 2 3 8 10 12 16 20 24 26 27 30 33 36 35 34 33 32 30 30 28 27 30
32 31 29 27 28 25 24 23 21 21 19 15 11 8 6 3 2 0 3 4 5 4 8 12 15 17 21 25 26 27 32 39 44 44 43 42 40 39 38 37 37 38 35
34 30 29 28 28 23 22 17 14 13 12 10 6 4 4 4 7 7 8 9 10 11 14 17 21 24 27 28 30 36 44 47 49 52 54 52 48 46 45 44 44 44 44
32 27 25 23 25 23 19 15 13 11 12 13 13 13 10 9 10 12 11 13 15 18 21 24 26 28 31 34 39 46 51 53 55 59 61 57 54 49 49 49 49 50 52
31 29 26 28 24 20 16 12 15 21 23 27 27 23 19 18 16 17 16 19 22 24 27 28 31 35 39 43 47 51 55 59 62 61 62 60 56 54 51 51 56 57 56
33 34 34 33 27 24 20 10 7 19 23 27 34 34 28 22 19 21 21 23 25 25 27 31 35 40 46 51 55 59 62 63 65 65 62 57 52 50 50 52 52 53 58
38 41 39 35 28 24 21 19 32 15 29 31 33 25 21 16 15 16 18 20 22 27 34 41 46 52 58 62 63 63 61 60 59 55 54 50 48 46 46 46 49 53 55
33 38 43 43 40 28 18 19 33 21 23 15 10 12 13 14 13 15 18 25 33 39 45 50 53 56 57 56 54 52 50 49 49 47 45 44 46 48 49 52 51 51 52
38 45 43 42 42 35 12 14 11 3 3 6 9 13 16 19 20 24 30 34 40 48 52 54 54 52 50 50 50 47 47 43 33 30 38 48 47 48 54 55 56 58 56
21 20 26 32 22 6 17 22 20 11 8 1 10 16 19 20 21 26 30 39 48 52 52 50 50 51 48 54 49 35 32 20 21 41 33 39 50 48 51 53 54 54 57
14 16 17 23 26 30 24 20 12 5 5 15 21 23 27 27 25 29 39 46 45 40 42 47 49 49 45 46 38 32 22 26 16 19 43 40 44 41 46 46 48 50 51
46 43 40 39 38 32 23 12 5 0 7 14 19 25 24 20 25 36 41 41 39 43 48 49 48 45 39 36 37 21 21 19 39 25 34 31 41 48 49 50 48 46 47
45 38 34 29 25 20 12 7 7 9 14 18 20 21 16 22 33 35 36 34 39 42 46 47 45 40 38 24 24 21 24 27 28 31 27 36 40 39 40 49 50 42 38
37 32 25 21 18 11 9 8 13 15 16 16 15 13 21 29 33 34 37 38 42 45 44 47 44 41 35 25 22 21 24 27 29 29 44 40 40 39 37 32 40 44 34
30 22 21 17 19 14 8 9 12 13 12 12 14 22 27 32 37 39 40 42 44 48 49 47 43 41 33 29 28 29 27 27 29 29 31 41 47 44 39 36 29 33 33
Wind_Direction_850mb
160 155 152 155 152 149 147 146 142 140 138 138 131 123 122 121 120 118 116 112 112 91 58 32 21 9 1 358 333 335 333 328 328 338 359 14 24 27 25 27 31 21 19
155 154 156 158 156 155 157 155 151 147 144 136 128 129 129 130 131 127 116 105 82 79 76 64 49 28 14 6 355 345 331 332 334 340 1 22 46 38 25 31 27 5 349
160 159 156 157 159 163 160 160 154 152 144 140 141 139 136 125 113 104 101 97 90 85 80 73 63 53 47 38 29 21 5 359 344 347 358 8 37 42 31 48 26 14 352
163 163 157 160 164 160 162 155 153 154 147 144 138 126 115 108 106 101 95 90 85 80 75 70 62 55 50 41 35 33 19 15 11 4 11 3 340 5 35 1 355 351 348
161 159 155 160 161 161 163 158 155 147 141 130 117 111 110 101 96 95 92 84 80 75 68 58 50 42 39 36 31 27 23 14 13 9 11 360 351 344 339 339 337 342 324
160 157 158 159 162 164 160 157 151 142 130 121 119 115 103 98 97 95 90 83 74 64 57 51 45 37 32 27 23 15 15 10 11 9 6 353 341 327 329 331 333 330 319
162 158 157 161 161 159 162 155 146 136 132 130 123 115 111 106 106 101 95 91 83 75 69 66 63 59 49 37 30 19 16 11 11 12 3 359 341 325 321 314 320 324 319
160 159 158 157 157 163 162 152 145 139 135 131 126 123 116 116 113 105 102 96 92 87 83 74 69 63 56 47 38 30 27 23 12 7 1 351 336 326 321 317 310 310 317
161 160 154 155 161 160 157 150 143 141 137 133 128 125 122 120 113 107 104 101 97 99 86 80 75 68 60 52 42 33 27 22 18 12 359 340 323 315 314 309 310 311 307
160 155 157 162 162 158 156 149 145 142 136 131 130 123 124 118 113 110 109 111 111 107 96 87 74 61 51 38 29 20 16 14 10 7 1 353 345 337 316 306 303 301 298
157 160 165 164 159 157 152 146 144 140 137 137 133 131 128 126 121 121 127 121 126 119 106 66 24 13 11 6 4 3 360 355 350 347 344 337 332 330 326 321 312 303 299
163 164 162 164 156 150 148 146 146 147 145 141 140 144 132 128 131 125 139 135 145 131 4 342 335 339 338 340 344 346 347 342 337 333 327 319 313 310 308 308 304 303 301
165 167 159 155 148 150 148 147 145 148 148 153 153 149 153 149 170 8 299 279 259 310 314 321 317 319 320 324 330 334 333 330 329 327 323 312 301 295 292 291 294 296 293
175 169 159 156 152 154 151 150 147 156 176 189 191 187 206 235 243 234 248 263 274 293 304 308 305 305 309 313 316 321 324 326 325 324 324 319 306 293 287 284 284 283 285
178 172 170 168 168 170 174 179 203 221 235 243 247 248 255 254 246 247 260 274 284 292 298 297 294 297 301 305 308 312 315 317 318 319 319 316 308 297 287 281 278 277 278
185 184 185 189 188 190 196 216 240 247 252 257 259 261 256 256 268 269 278 282 283 289 294 297 302 304 304 304 305 308 311 313 313 314 314 310 303 297 292 285 277 275 273
209 202 203 203 198 202 214 226 316 277 274 268 265 265 267 265 274 280 283 286 284 292 301 305 307 307 307 306 308 310 310 309 310 312 311 308 303 297 291 285 283 281 275
224 219 215 208 200 193 182 141 351 273 277 278 276 284 297 301 290 287 287 285 296 309 313 314 314 315 315 314 312 310 309 309 311 310 307 304 302 299 295 288 283 280 280
242 242 231 216 201 176 169 211 300 289 289 303 329 338 338 326 313 303 310 320 323 325 324 323 321 319 317 314 312 311 311 309 307 302 300 301 303 303 300 294 289 284 280
243 234 231 223 210 207 273 258 276 164 65 23 353 339 325 314 314 321 326 326 327 327 325 325 325 325 323 321 319 315 315 311 293 280 292 294 296 303 304 303 298 292 284
212 229 248 232 235 181 101 143 149 155 150 31 349 338 329 322 320 324 329 328 325 326 327 330 332 330 327 323 325 316 313 294 257 285 287 304 306 309 306 303 300 298 294
125 159 168 136 120 99 106 118 122 121 354 337 338 327 327 320 318 323 325 327 328 333 337 335 333 331 327 324 323 323 316 299 294 274 299 302 310 315 314 307 304 301 297
115 118 119 113 103 106 115 105 83 345 316 315 306 305 303 306 319 324 326 328 330 332 334 334 332 328 324 322 319 321 311 297 309 306 306 304 307 312 310 305 305 304 300
120 118 119 118 122 126 141 188 258 287 299 301 302 299 308 324 326 326 329 329 328 330 335 335 328 320 316 309 313 307 298 289 296 300 294 298 309 309 308 304 310 314 296
130 130 136 144 155 173 207 248 280 301 311 314 311 319 328 325 326 327 329 329 329 331 327 330 324 319 312 306 302 303 302 299 296 292 302 309 301 305 306 309 311 315 309
152 152 163 162 185 204 245 272 294 316 332 343 330 320 320 319 322 325 327 329 329 323 318 313 308 308 305 302 308 311 306 302 301 299 303 310 304 313 303 308 313 315 307